This is the latest recevied weather packets stored in our database for station/object NA9VY-8. If no packets are shown the sender has not sent any weather packets the latest 10 day(s).
| Time | Temp. | Humidity | Pressure | Rain* | Wind** | Luminosity | Snow |
|---|---|---|---|---|---|---|---|
| 1777492906 | 17.78° C | 64% | 1015.9 hPa | 0 mm | - | 106 W/m² | - |
| 1777492603 | 17.22° C | 63% | 1015.8 hPa | 0 mm | - | 595 W/m² | - |
| 1777492298 | 16.67° C | 65% | 1015.9 hPa | 0 mm | - | 146 W/m² | - |
| 1777491995 | 17.78° C | 65% | 1015.8 hPa | 0 mm | - | 153 W/m² | - |
| 1777491692 | 17.78° C | 66% | 1015.5 hPa | 0 mm | - | 261 W/m² | - |
| 1777491389 | 17.78° C | 67% | 1015.6 hPa | 0 mm | - | 179 W/m² | - |
| 1777491086 | 17.78° C | 68% | 1015.8 hPa | 0 mm | - | 219 W/m² | - |
| 1777490782 | 18.33° C | 66% | 1015.7 hPa | 0 mm | - | 208 W/m² | - |
| 1777490479 | 17.22° C | 67% | 1015.6 hPa | 0 mm | - | 503 W/m² | - |
| 1777490175 | 17.78° C | 64% | 1015.8 hPa | 0 mm | - | 169 W/m² | - |
| 1777489872 | 17.78° C | 64% | 1015.9 hPa | 0 mm | - | 450 W/m² | - |
| 1777489570 | 17.78° C | 66% | 1015.8 hPa | 0 mm | - | 279 W/m² | - |
| 1777489266 | 17.22° C | 72% | 1015.8 hPa | 0 mm | - | 336 W/m² | - |
| 1777488963 | 17.22° C | 73% | 1015.9 hPa | 0 mm | - | 188 W/m² | - |
| 1777488660 | 17.22° C | 70% | 1015.7 hPa | 0 mm | - | 157 W/m² | - |
| 1777488358 | 17.22° C | 73% | 1015.7 hPa | 0 mm | - | 617 W/m² | - |
| 1777488056 | 17.22° C | 71% | 1015.7 hPa | 0 mm | - | 111 W/m² | - |
| 1777487753 | 17.78° C | 70% | 1015.4 hPa | 0 mm | - | 168 W/m² | - |
| 1777487451 | 18.33° C | 71% | 1015.5 hPa | 0 mm | - | 509 W/m² | - |
| 1777487149 | 17.78° C | 70% | 1015.6 hPa | 0 mm | - | 363 W/m² | - |
| 1777486844 | 17.22° C | 72% | 1015.6 hPa | 0 mm | - | 752 W/m² | - |
| 1777486542 | 17.22° C | 74% | 1015.5 hPa | 0 mm | - | 170 W/m² | - |
| 1777486239 | 17.78° C | 71% | 1015.6 hPa | 0 mm | - | 228 W/m² | - |
| 1777485937 | 17.78° C | 70% | 1015.6 hPa | 0 mm | - | 172 W/m² | - |
| 1777485632 | 17.22° C | 72% | 1015.8 hPa | 0 mm | - | 228 W/m² | - |
* Rain latest hour (hover to see other rain measurements)
** Current wind speed in m/s (hover to see current wind gust speed)